World > North America > United States > Ohio

Liberty Township, Ohio Regional Weather

Lat: 39.43N, Lon: 84.57W
Wx Zone: OHZ070Web Search

Helpful Tip: Abbreviated, 7 Day, 14 Day Forecasts. There is a weather forecast for every taste.

Feedback


°F Click to change Liberty Township hourly weather to Imperial units.Click to change Liberty Township hourly weather to Metric units. °C
Liberty Township Weather Map
UTC Time: 6/13/2021, 08:46
Your Time:

Liberty Township, OH Regional Weather

Expires:202106130900;;186731
ASUS41 KCLE 130812
RWRCLE
OHIO REGIONAL WEATHER ROUNDUP
NATIONAL WEATHER SERVICE WILMINGTON, OH
400 AM EDT SUN JUN 13 2021

NOTE: "FAIR" INDICATES FEW OR NO CLOUDS BELOW 12,000 FEET WITH NO
SIGNIFICANT WEATHER AND/OR OBSTRUCTIONS TO VISIBILITY.


OHZ042-051>053-060>062-070>072-077>081-130900-
  SOUTHWEST OHIO
  
CITY           SKY/WX    TMP DP  RH WIND       PRES   REMARKS
CINC-COVINGTON FAIR      71  68  90 SW5       29.87R                  
CINC-LUNKEN    FAIR      72  71  97 CALM      29.86S                  
HAMILTON       FAIR      71  70  96 CALM      29.86S FOG              
DAYTON         MOCLDY    72  60  66 CALM      29.88R                  
WRIGHT-PAT AFB FAIR      70  62  77 SW5       29.86R                  
DAYTON GENERAL FAIR      72  66  81 S5        29.86R                  
WILMINGTON     FAIR      70  69  97 SW5       29.86R                  
$$


SKY/WX - Weather  TMP - Temperature  DP - Dew Point  RH - Relative Humidity
WIND - Wind Direction/Speed PRES - Barometric Pressure VSB - Visibility
WCI - Wind Chill Index E13G22 Wind - East Wind 13 mph/Gusts of 22 mph